[keps] orb09044.amsat

Ray Hoad r.hoad at att.net
Fri Feb 13 20:05:29 PST 2009


SB KEPS @ AMSAT  $ORB09044.O
Orbital Elements  09044.OSCAR

HR AMSAT ORBITAL ELEMENTS FOR OSCAR SATELLITES
FROM WA5QGD FORT WORTH,TX February 13, 2009
Send Subscribe/unsubscribe to KEPS at 
http://www.amsat.org/mailman/listinfo/keps
BID: ORB09044.O
TO ALL RADIO AMATEURS BT

Satellite: AO-07
Catalog number: 07530
Epoch time:      09043.98982839
Element set:    0404
Inclination:      101.4412 deg
RA of node:       073.1700 deg
Eccentricity:    0.0011949
Arg of perigee:   151.3305 deg
Mean anomaly:     208.8427 deg
Mean motion:   12.53575274 rev/day
Decay rate:       -2.7e-07 rev/day^2
Epoch rev:           56715
Checksum:              292

Satellite: AO-10
Catalog number: 14129
Epoch time:      09043.93319956
Element set:     620
Inclination:      026.0001 deg
RA of node:       171.6735 deg
Eccentricity:    0.5971314
Arg of perigee:   197.7162 deg
Mean anomaly:     126.2516 deg
Mean motion:   02.05870549 rev/day
Decay rate:      -2.53e-06 rev/day^2
Epoch rev:           19306
Checksum:              292

Satellite: UO-11
Catalog number: 14781
Epoch time:      09043.92534367
Element set:    0886
Inclination:      098.1262 deg
RA of node:       087.1564 deg
Eccentricity:    0.0009615
Arg of perigee:   023.7596 deg
Mean anomaly:     336.4043 deg
Mean motion:   14.79693887 rev/day
Decay rate:        1.9e-07 rev/day^2
Epoch rev:           33945
Checksum:              342

Satellite: RS-15
Catalog number: 23439
Epoch time:      09044.69850152
Element set:     180
Inclination:      064.8151 deg
RA of node:       104.5102 deg
Eccentricity:    0.0145994
Arg of perigee:   075.5694 deg
Mean anomaly:     286.1380 deg
Mean motion:   11.27553086 rev/day
Decay rate:       -3.9e-07 rev/day^2
Epoch rev:           58219
Checksum:              310

Satellite: FO-29
Catalog number: 24278
Epoch time:      09044.72381737
Element set:     970
Inclination:      098.5724 deg
RA of node:       295.2349 deg
Eccentricity:    0.0350276
Arg of perigee:   310.3602 deg
Mean anomaly:     046.7432 deg
Mean motion:   13.52942099 rev/day
Decay rate:       -1.6e-07 rev/day^2
Epoch rev:           61705
Checksum:              320

Satellite: SO-33
Catalog number: 25509
Epoch time:      09043.98828685
Element set:    0389
Inclination:      031.4350 deg
RA of node:       034.7697 deg
Eccentricity:    0.0354647
Arg of perigee:   332.5216 deg
Mean anomaly:     025.7092 deg
Mean motion:   14.28239141 rev/day
Decay rate:        6.1e-07 rev/day^2
Epoch rev:           53806
Checksum:              320

Satellite: AO-40
Catalog number: 26609
Epoch time:      09042.97811223
Element set:    0192
Inclination:      008.7069 deg
RA of node:       033.2734 deg
Eccentricity:    0.7948891
Arg of perigee:   174.8156 deg
Mean anomaly:     207.8055 deg
Mean motion:   01.25583595 rev/day
Decay rate:      -1.82e-06 rev/day^2
Epoch rev:           03805
Checksum:              325

Satellite: VO-52
Catalog number: 28650
Epoch time:      09043.91613507
Element set:    0154
Inclination:      097.7587 deg
RA of node:       109.5170 deg
Eccentricity:    0.0028307
Arg of perigee:   076.4946 deg
Mean anomaly:     283.9396 deg
Mean motion:   14.81551311 rev/day
Decay rate:      -1.64e-06 rev/day^2
Epoch rev:           20424
Checksum:              312

Satellite: PO-63
Catalog number: 29712
Epoch time:      09044.67278100
Element set:     235
Inclination:      097.8451 deg
RA of node:       103.9511 deg
Eccentricity:    0.0013589
Arg of perigee:   320.8314 deg
Mean anomaly:     039.1918 deg
Mean motion:   14.80440404 rev/day
Decay rate:       4.56e-06 rev/day^2
Epoch rev:           11319
Checksum:              289

/EX
SB KEPS @ AMSAT  $ORB09044.D
Orbital Elements  09044.MICROS

HR AMSAT ORBITAL ELEMENTS FOR THE MICROSATS
FROM WA5QGD FORT WORTH,TX February 13, 2009
Send Subscribe/unsubscribe to KEPS at 
http://www.amsat.org/mailman/listinfo/keps
BID: ORB09044.D
TO ALL RADIO AMATEURS BT

Satellite: AO-16
Catalog number: 20439
Epoch time:      09043.95483876
Element set:    0535
Inclination:      098.2626 deg
RA of node:       018.1102 deg
Eccentricity:    0.0010782
Arg of perigee:   175.5713 deg
Mean anomaly:     184.5564 deg
Mean motion:   14.31815637 rev/day
Decay rate:       -2.3e-07 rev/day^2
Epoch rev:           99537
Checksum:              319

Satellite: LO-19
Catalog number: 20442
Epoch time:      09044.52130747
Element set:     455
Inclination:      098.2279 deg
RA of node:       026.3796 deg
Eccentricity:    0.0012030
Arg of perigee:   171.1017 deg
Mean anomaly:     189.0387 deg
Mean motion:   14.32052656 rev/day
Decay rate:        4.0e-08 rev/day^2
Epoch rev:           99561
Checksum:              292

Satellite: AO-27
Catalog number: 22825
Epoch time:      09043.95454500
Element set:    0177
Inclination:      098.4214 deg
RA of node:       001.3923 deg
Eccentricity:    0.0007502
Arg of perigee:   269.9641 deg
Mean anomaly:     090.0690 deg
Mean motion:   14.29258553 rev/day
Decay rate:        5.8e-07 rev/day^2
Epoch rev:           80216
Checksum:              297

Satellite: IO-26
Catalog number: 22826
Epoch time:      09043.89657486
Element set:    0896
Inclination:      098.4137 deg
RA of node:       002.1394 deg
Eccentricity:    0.0008087
Arg of perigee:   267.5444 deg
Mean anomaly:     092.4820 deg
Mean motion:   14.29509118 rev/day
Decay rate:       -1.3e-07 rev/day^2
Epoch rev:           80225
Checksum:              324

Satellite: GO-32
Catalog number: 25397
Epoch time:      09043.98170180
Element set:    0823
Inclination:      098.3387 deg
RA of node:       072.9050 deg
Eccentricity:    0.0000355
Arg of perigee:   250.8340 deg
Mean anomaly:     109.2815 deg
Mean motion:   14.23154860 rev/day
Decay rate:       -1.1e-07 rev/day^2
Epoch rev:           55046
Checksum:              284

Satellite: NO-44
Catalog number: 26931
Epoch time:      09044.03050286
Element set:    0098
Inclination:      067.0530 deg
RA of node:       024.2005 deg
Eccentricity:    0.0005593
Arg of perigee:   262.4713 deg
Mean anomaly:     097.5753 deg
Mean motion:   14.29545967 rev/day
Decay rate:      -2.30e-06 rev/day^2
Epoch rev:           38483
Checksum:              298

Satellite: SO-50
Catalog number: 27607
Epoch time:      09042.18114610
Element set:     812
Inclination:      064.5568 deg
RA of node:       047.7883 deg
Eccentricity:    0.0079425
Arg of perigee:   232.8766 deg
Mean anomaly:     126.4990 deg
Mean motion:   14.71413497 rev/day
Decay rate:      -1.43e-06 rev/day^2
Epoch rev:           33013
Checksum:              308

Satellite: CO-55
Catalog number: 27844
Epoch time:      09043.61119498
Element set:    0511
Inclination:      098.7160 deg
RA of node:       054.5240 deg
Eccentricity:    0.0010330
Arg of perigee:   139.1988 deg
Mean anomaly:     220.9960 deg
Mean motion:   14.20622326 rev/day
Decay rate:        6.6e-07 rev/day^2
Epoch rev:           29157
Checksum:              297

Satellite: CO-57
Catalog number: 27848
Epoch time:      09043.57145872
Element set:    0458
Inclination:      098.7166 deg
RA of node:       053.5494 deg
Eccentricity:    0.0010024
Arg of perigee:   143.5321 deg
Mean anomaly:     216.6540 deg
Mean motion:   14.20426385 rev/day
Decay rate:        2.7e-07 rev/day^2
Epoch rev:           29153
Checksum:              305

Satellite: AO-51
Catalog number: 28375
Epoch time:      09044.68317347
Element set:     316
Inclination:      098.0564 deg
RA of node:       061.4619 deg
Eccentricity:    0.0084059
Arg of perigee:   139.3613 deg
Mean anomaly:     221.3893 deg
Mean motion:   14.40632841 rev/day
Decay rate:        1.0e-08 rev/day^2
Epoch rev:           24317
Checksum:              299

Satellite: CO-56
Catalog number: 28941
Epoch time:      09044.87583201
Element set:     815
Inclination:      098.1284 deg
RA of node:       197.5955 deg
Eccentricity:    0.0120557
Arg of perigee:   234.2567 deg
Mean anomaly:     124.7322 deg
Mean motion:   15.71212238 rev/day
Decay rate:     3.5397e-04 rev/day^2
Epoch rev:           16780
Checksum:              332

Satellite: CP3
Catalog number: 31128
Epoch time:      09044.66490908
Element set:     555
Inclination:      098.0051 deg
RA of node:       103.4748 deg
Eccentricity:    0.0102252
Arg of perigee:   308.3190 deg
Mean anomaly:     050.8850 deg
Mean motion:   14.52017550 rev/day
Decay rate:       -4.8e-07 rev/day^2
Epoch rev:            9697
Checksum:              288

Satellite: CP4
Catalog number: 31132
Epoch time:      09043.89673927
Element set:    0548
Inclination:      098.0102 deg
RA of node:       106.1161 deg
Eccentricity:    0.0084442
Arg of perigee:   300.8221 deg
Mean anomaly:     058.4680 deg
Mean motion:   14.55182204 rev/day
Decay rate:        1.7e-07 rev/day^2
Epoch rev:           09695
Checksum:              282

Satellite: CO-65
Catalog number: 32785
Epoch time:      09044.72639626
Element set:     290
Inclination:      097.9624 deg
RA of node:       109.6259 deg
Eccentricity:    0.0016036
Arg of perigee:   074.2626 deg
Mean anomaly:     286.0348 deg
Mean motion:   14.81447124 rev/day
Decay rate:       -6.7e-07 rev/day^2
Epoch rev:            4316
Checksum:              323

/EX
SB KEPS @ AMSAT  $ORB09044.W
Orbital Elements  09044.WEATHER

HR AMSAT ORBITAL ELEMENTS FOR WEATHER SATELLITES
FROM WA5QGD FORT WORTH,TX February 13, 2009
Send Subscribe/unsubscribe to KEPS at 
http://www.amsat.org/mailman/listinfo/keps
BID: ORB09044.W
TO ALL RADIO AMATEURS BT

Satellite: NOAA-10
Catalog number: 16969
Epoch time:      09044.64445830
Element set:     500
Inclination:      098.7049 deg
RA of node:       071.8923 deg
Eccentricity:    0.0012155
Arg of perigee:   193.9520 deg
Mean anomaly:     166.1308 deg
Mean motion:   14.27379566 rev/day
Decay rate:      -1.02e-06 rev/day^2
Epoch rev:           16588
Checksum:              315

